Time,TemperatureF,DewpointF,PressureIn,WindDirection,WindDirectionDegrees,WindSpeedMPH,WindSpeedGustMPH,Humidity,HourlyPrecipIn,Conditions,Clouds,dailyrainin,SoftwareType,DateUTC
2013-06-22 00:01:00,71.5,58.3,30.07,SSW,203,0.0,0.0,63,0.00,,CLR,0.00,VWS V14.00,2013-06-22 04:01:00,
2013-06-22 00:06:00,71.5,58.3,30.08,SSW,203,0.0,0.0,63,0.00,,CLR,0.00,VWS V14.00,2013-06-22 04:06:00,
2013-06-22 00:11:00,71.5,58.3,30.08,SSW,203,0.0,0.0,63,0.00,,CLR,0.00,VWS V14.00,2013-06-22 04:11:00,
2013-06-22 00:16:00,71.5,58.3,30.08,SSW,203,0.0,0.0,63,0.00,,CLR,0.00,VWS V14.00,2013-06-22 04:16:00,
2013-06-22 00:21:00,71.5,58.3,30.08,SSW,203,0.0,0.0,63,0.00,,CLR,0.00,VWS V14.00,2013-06-22 04:21:00,
2013-06-22 00:26:00,71.6,58.8,30.08,SSW,203,0.0,0.0,64,0.00,,CLR,0.00,VWS V14.00,2013-06-22 04:26:00,
2013-06-22 00:31:00,71.7,58.5,30.07,SSW,203,0.0,0.0,63,0.00,,CLR,0.00,VWS V14.00,2013-06-22 04:31:00,
2013-06-22 00:36:00,71.9,59.1,30.07,SSW,203,0.0,0.0,64,0.00,,CLR,0.00,VWS V14.00,2013-06-22 04:36:00,
2013-06-22 00:41:00,72.1,59.3,30.07,South,185,0.0,1.0,64,0.00,,CLR,0.00,VWS V14.00,2013-06-22 04:41:00,
2013-06-22 00:46:00,72.3,59.0,30.07,South,185,0.0,1.0,63,0.00,,CLR,0.00,VWS V14.00,2013-06-22 04:46:00,
2013-06-22 00:51:00,72.4,59.5,30.07,South,185,0.0,0.0,64,0.00,,CLR,0.00,VWS V14.00,2013-06-22 04:51:00,
2013-06-22 00:56:00,72.6,59.3,30.07,South,184,1.0,2.0,63,0.00,,CLR,0.00,VWS V14.00,2013-06-22 04:56:00,
2013-06-22 01:01:00,72.7,59.8,30.07,South,185,0.0,1.0,64,0.00,,CLR,0.00,VWS V14.00,2013-06-22 05:01:00,
2013-06-22 01:06:00,72.8,59.9,30.07,South,184,0.0,2.0,64,0.00,,CLR,0.00,VWS V14.00,2013-06-22 05:06:00,
2013-06-22 01:11:00,72.8,59.9,30.07,SSW,205,0.0,3.0,64,0.00,,CLR,0.00,VWS V14.00,2013-06-22 05:11:00,
2013-06-22 01:16:00,72.9,60.0,30.07,SSW,210,0.0,4.0,64,0.00,,CLR,0.00,VWS V14.00,2013-06-22 05:16:00,
2013-06-22 01:21:00,72.8,60.8,30.06,SSW,205,0.0,4.0,66,0.00,,CLR,0.00,VWS V14.00,2013-06-22 05:21:00,
2013-06-22 01:26:00,72.7,60.3,30.06,SSW,207,1.0,7.0,65,0.00,,CLR,0.00,VWS V14.00,2013-06-22 05:26:00,
2013-06-22 01:31:00,72.8,60.4,30.06,SSE,160,0.0,1.0,65,0.00,,CLR,0.00,VWS V14.00,2013-06-22 05:31:00,
2013-06-22 01:36:00,72.8,60.8,30.06,SSE,164,0.0,5.0,66,0.00,,CLR,0.00,VWS V14.00,2013-06-22 05:36:00,
2013-06-22 01:41:00,72.8,60.8,30.06,SSW,205,0.0,3.0,66,0.00,,CLR,0.00,VWS V14.00,2013-06-22 05:41:00,
2013-06-22 01:46:00,72.7,60.7,30.06,SSW,210,0.0,6.0,66,0.00,,CLR,0.00,VWS V14.00,2013-06-22 05:46:00,
2013-06-22 01:51:00,72.7,61.1,30.06,SW,223,0.0,7.0,67,0.00,,CLR,0.00,VWS V14.00,2013-06-22 05:51:00,
2013-06-22 01:56:00,72.7,61.1,30.06,SSW,212,0.0,7.0,67,0.00,,CLR,0.00,VWS V14.00,2013-06-22 05:56:00,
2013-06-22 02:01:00,72.6,61.4,30.06,SSE,160,0.0,1.0,68,0.00,,CLR,0.00,VWS V14.00,2013-06-22 06:01:00,
2013-06-22 02:06:00,72.5,61.8,30.06,South,190,0.0,3.0,69,0.00,,CLR,0.00,VWS V14.00,2013-06-22 06:06:00,
2013-06-22 02:11:00,72.5,61.3,30.06,South,186,0.0,6.0,68,0.00,,CLR,0.00,VWS V14.00,2013-06-22 06:11:00,
2013-06-22 02:16:00,72.5,61.3,30.06,South,186,0.0,6.0,68,0.00,,CLR,0.00,VWS V14.00,2013-06-22 06:16:00,
2013-06-22 02:21:00,72.5,61.8,30.06,SSW,194,0.0,2.0,69,0.00,,CLR,0.00,VWS V14.00,2013-06-22 06:21:00,
2013-06-22 02:25:00,72.4,62.1,30.05,South,188,0.0,4.0,70,0.00,,CLR,0.00,VWS V14.00,2013-06-22 06:25:00,
2013-06-22 02:30:00,72.2,61.5,30.06,SSW,197,3.0,3.0,69,0.00,,CLR,0.00,VWS V14.00,2013-06-22 06:30:00,
2013-06-22 02:35:00,72.1,61.8,30.05,SSW,195,0.0,3.0,70,0.00,,CLR,0.00,VWS V14.00,2013-06-22 06:35:00,
2013-06-22 02:40:00,71.9,61.6,30.05,SSW,196,1.0,3.0,70,0.00,,CLR,0.00,VWS V14.00,2013-06-22 06:40:00,
2013-06-22 02:45:00,71.7,61.8,30.05,South,183,0.0,4.0,71,0.00,,CLR,0.00,VWS V14.00,2013-06-22 06:45:00,
2013-06-22 02:50:00,71.6,61.7,30.04,South,188,0.0,6.0,71,0.00,,CLR,0.00,VWS V14.00,2013-06-22 06:50:00,
2013-06-22 02:55:00,71.5,61.6,30.04,SW,218,0.0,6.0,71,0.00,,CLR,0.00,VWS V14.00,2013-06-22 06:55:00,
2013-06-22 03:00:00,71.5,61.6,30.04,SW,228,0.0,5.0,71,0.00,,CLR,0.00,VWS V14.00,2013-06-22 07:00:00,
2013-06-22 03:05:00,71.5,61.6,30.04,SSW,207,0.0,5.0,71,0.00,,CLR,0.00,VWS V14.00,2013-06-22 07:05:00,
2013-06-22 03:10:00,71.4,61.9,30.04,SSW,206,0.0,1.0,72,0.00,,CLR,0.00,VWS V14.00,2013-06-22 07:10:00,
2013-06-22 03:15:00,71.4,61.9,30.04,SSW,199,0.0,6.0,72,0.00,,CLR,0.00,VWS V14.00,2013-06-22 07:15:00,
2013-06-22 03:20:00,71.4,61.9,30.03,SSW,196,0.0,4.0,72,0.00,,CLR,0.00,VWS V14.00,2013-06-22 07:20:00,
2013-06-22 03:25:00,71.3,61.8,30.03,South,191,0.0,5.0,72,0.00,,CLR,0.00,VWS V14.00,2013-06-22 07:25:00,
2013-06-22 03:30:00,71.3,61.8,30.03,SW,218,2.0,6.0,72,0.00,,CLR,0.00,VWS V14.00,2013-06-22 07:30:00,
2013-06-22 03:35:00,71.2,61.7,30.03,SSW,200,0.0,6.0,72,0.00,,CLR,0.00,VWS V14.00,2013-06-22 07:35:00,
2013-06-22 03:40:00,71.2,61.7,30.03,SSW,200,0.0,0.0,72,0.00,,CLR,0.00,VWS V14.00,2013-06-22 07:40:00,
2013-06-22 03:45:00,71.0,61.9,30.03,SSW,199,0.0,2.0,73,0.00,,CLR,0.00,VWS V14.00,2013-06-22 07:45:00,
2013-06-22 03:50:00,70.9,61.8,30.03,SSW,202,2.0,2.0,73,0.00,,CLR,0.00,VWS V14.00,2013-06-22 07:50:00,
2013-06-22 03:55:00,70.8,61.7,30.03,South,181,0.0,4.0,73,0.00,,CLR,0.00,VWS V14.00,2013-06-22 07:55:00,
2013-06-22 04:00:00,70.7,61.6,30.03,South,181,0.0,0.0,73,0.00,,CLR,0.00,VWS V14.00,2013-06-22 08:00:00,
2013-06-22 04:05:00,70.6,61.5,30.03,South,180,0.0,1.0,73,0.00,,CLR,0.00,VWS V14.00,2013-06-22 08:05:00,
2013-06-22 04:10:00,70.3,61.6,30.03,South,180,0.0,0.0,74,0.00,,CLR,0.00,VWS V14.00,2013-06-22 08:10:00,
2013-06-22 04:15:00,70.1,61.4,30.03,South,181,0.0,1.0,74,0.00,,CLR,0.00,VWS V14.00,2013-06-22 08:15:00,
2013-06-22 04:20:00,69.9,61.6,30.03,South,181,0.0,0.0,75,0.00,,CLR,0.00,VWS V14.00,2013-06-22 08:20:00,
2013-06-22 04:25:00,69.8,61.5,30.02,South,181,0.0,2.0,75,0.00,,CLR,0.00,VWS V14.00,2013-06-22 08:25:00,
2013-06-22 04:30:00,69.7,61.8,30.02,South,181,0.0,0.0,76,0.00,,CLR,0.00,VWS V14.00,2013-06-22 08:30:00,
2013-06-22 04:35:00,69.6,61.7,30.02,South,181,0.0,2.0,76,0.00,,CLR,0.00,VWS V14.00,2013-06-22 08:35:00,
2013-06-22 04:40:00,69.5,61.6,30.02,South,180,0.0,1.0,76,0.00,,CLR,0.00,VWS V14.00,2013-06-22 08:40:00,
2013-06-22 04:45:00,69.4,61.5,30.02,South,180,0.0,2.0,76,0.00,,CLR,0.00,VWS V14.00,2013-06-22 08:45:00,
2013-06-22 04:50:00,69.4,61.9,30.02,South,181,0.0,1.0,77,0.00,,CLR,0.00,VWS V14.00,2013-06-22 08:50:00,
2013-06-22 04:55:00,69.3,61.8,30.02,South,181,0.0,1.0,77,0.00,,CLR,0.00,VWS V14.00,2013-06-22 08:55:00,
2013-06-22 05:00:00,69.2,61.7,30.02,South,181,0.0,0.0,77,0.00,,FEW090,0.00,VWS V14.00,2013-06-22 09:00:00,
2013-06-22 05:05:00,69.1,62.0,30.03,SE,139,0.0,4.0,78,0.00,,FEW090,0.00,VWS V14.00,2013-06-22 09:05:00,
2013-06-22 05:10:00,69.0,61.9,30.02,SSE,148,0.0,0.0,78,0.00,,FEW090,0.00,VWS V14.00,2013-06-22 09:10:00,
2013-06-22 05:15:00,68.9,61.8,30.02,South,175,0.0,5.0,78,0.00,,FEW090,0.00,VWS V14.00,2013-06-22 09:15:00,
2013-06-22 05:20:00,68.9,61.8,30.02,SSW,198,0.0,2.0,78,0.00,,FEW090,0.00,VWS V14.00,2013-06-22 09:20:00,
2013-06-22 05:25:00,68.8,62.0,30.02,SSW,198,0.0,4.0,79,0.00,,FEW090,0.00,VWS V14.00,2013-06-22 09:25:00,
2013-06-22 05:30:00,68.7,61.9,30.03,SSE,167,0.0,3.0,79,0.00,,FEW090,0.00,VWS V14.00,2013-06-22 09:30:00,
2013-06-22 05:35:00,68.7,62.3,30.03,SSW,200,1.0,5.0,80,0.00,,FEW090,0.00,VWS V14.00,2013-06-22 09:35:00,
2013-06-22 05:40:00,68.7,62.3,30.02,SSW,198,0.0,4.0,80,0.00,,FEW090,0.00,VWS V14.00,2013-06-22 09:40:00,
2013-06-22 05:45:00,68.7,62.3,30.03,SSW,200,2.0,4.0,80,0.00,,FEW090,0.00,VWS V14.00,2013-06-22 09:45:00,
2013-06-22 05:50:00,68.7,62.3,30.02,South,178,0.0,0.0,80,0.00,,FEW090,0.00,VWS V14.00,2013-06-22 09:50:00,
2013-06-22 05:55:00,68.8,62.4,30.02,South,176,0.0,3.0,80,0.00,,FEW090,0.00,VWS V14.00,2013-06-22 09:55:00,
2013-06-22 06:00:00,68.8,62.4,30.03,SW,219,0.0,6.0,80,0.00,,SCT095,0.00,VWS V14.00,2013-06-22 10:00:00,
2013-06-22 06:05:00,68.8,62.4,30.03,SW,219,0.0,6.0,80,0.00,,SCT095,0.00,VWS V14.00,2013-06-22 10:05:00,
2013-06-22 06:10:00,68.8,62.7,30.03,SW,219,0.0,0.0,81,0.00,,SCT095,0.00,VWS V14.00,2013-06-22 10:10:00,
2013-06-22 06:15:00,68.7,62.6,30.03,SW,219,0.0,1.0,81,0.00,,SCT095,0.00,VWS V14.00,2013-06-22 10:15:00,
2013-06-22 06:20:00,68.7,62.6,30.03,SSW,212,0.0,2.0,81,0.00,,SCT095,0.00,VWS V14.00,2013-06-22 10:20:00,
2013-06-22 06:25:00,68.7,63.0,30.03,SSW,212,0.0,3.0,82,0.00,,SCT095,0.00,VWS V14.00,2013-06-22 10:25:00,
2013-06-22 06:30:00,68.8,63.1,30.03,SSW,199,2.0,3.0,82,0.00,,SCT095,0.00,VWS V14.00,2013-06-22 10:30:00,
2013-06-22 06:35:00,68.9,63.2,30.03,SSW,198,0.0,4.0,82,0.00,,SCT095,0.00,VWS V14.00,2013-06-22 10:35:00,
2013-06-22 06:40:00,69.0,63.3,30.03,SSW,194,0.0,0.0,82,0.00,,SCT095,0.00,VWS V14.00,2013-06-22 10:40:00,
2013-06-22 06:45:00,69.2,63.5,30.02,SSW,196,2.0,3.0,82,0.00,,SCT095,0.00,VWS V14.00,2013-06-22 10:45:00,
2013-06-22 06:50:00,69.3,63.6,30.02,SSW,213,0.0,3.0,82,0.00,,SCT095,0.00,VWS V14.00,2013-06-22 10:50:00,
2013-06-22 06:55:00,69.4,63.7,30.02,South,179,1.0,10.0,82,0.00,,SCT095,0.00,VWS V14.00,2013-06-22 10:55:00,
2013-06-22 07:00:00,69.5,63.8,30.02,South,187,0.0,2.0,82,0.00,,CLR,0.00,VWS V14.00,2013-06-22 11:00:00,
2013-06-22 07:05:00,69.7,63.6,30.03,SSW,197,0.0,5.0,81,0.00,,CLR,0.00,VWS V14.00,2013-06-22 11:05:00,
2013-06-22 07:10:00,69.8,64.1,30.03,South,184,0.0,3.0,82,0.00,,CLR,0.00,VWS V14.00,2013-06-22 11:10:00,
2013-06-22 07:15:00,69.9,64.2,30.04,SSW,195,0.0,6.0,82,0.00,,CLR,0.00,VWS V14.00,2013-06-22 11:15:00,
2013-06-22 07:20:00,70.2,64.4,30.04,SSW,195,0.0,0.0,82,0.00,,CLR,0.00,VWS V14.00,2013-06-22 11:20:00,
2013-06-22 07:25:00,70.3,64.6,30.04,South,190,0.0,1.0,82,0.00,,CLR,0.00,VWS V14.00,2013-06-22 11:25:00,
2013-06-22 07:30:00,70.6,64.8,30.04,South,190,0.0,0.0,82,0.00,,CLR,0.00,VWS V14.00,2013-06-22 11:30:00,
2013-06-22 07:35:00,70.8,64.7,30.04,SSW,209,0.0,4.0,81,0.00,,CLR,0.00,VWS V14.00,2013-06-22 11:35:00,
2013-06-22 07:40:00,71.1,65.0,30.04,SW,219,0.0,0.0,81,0.00,,CLR,0.00,VWS V14.00,2013-06-22 11:40:00,
2013-06-22 07:45:00,71.3,65.2,30.04,SW,215,0.0,2.0,81,0.00,,CLR,0.00,VWS V14.00,2013-06-22 11:45:00,
2013-06-22 07:50:00,71.6,65.1,30.04,South,189,1.0,7.0,80,0.00,,CLR,0.00,VWS V14.00,2013-06-22 11:50:00,
2013-06-22 07:55:00,72.0,65.5,30.04,SSW,203,1.0,7.0,80,0.00,,CLR,0.00,VWS V14.00,2013-06-22 11:55:00,
2013-06-22 08:00:00,72.4,65.5,30.03,South,188,1.0,4.0,79,0.00,,CLR,0.00,VWS V14.00,2013-06-22 12:00:00,
2013-06-22 08:05:00,72.9,66.0,30.03,WSW,239,0.0,6.0,79,0.00,,CLR,0.00,VWS V14.00,2013-06-22 12:05:00,
2013-06-22 08:10:00,73.4,66.1,30.04,SSW,213,0.0,4.0,78,0.00,,CLR,0.00,VWS V14.00,2013-06-22 12:10:00,
2013-06-22 08:15:00,73.7,66.1,30.04,West,262,0.0,4.0,77,0.00,,CLR,0.00,VWS V14.00,2013-06-22 12:15:00,
2013-06-22 08:20:00,73.9,66.6,30.05,South,180,4.0,5.0,78,0.00,,CLR,0.00,VWS V14.00,2013-06-22 12:20:00,
2013-06-22 08:25:00,74.1,66.1,30.05,West,265,2.0,5.0,76,0.00,,CLR,0.00,VWS V14.00,2013-06-22 12:25:00,
2013-06-22 08:30:00,74.3,66.2,30.05,SW,236,0.0,0.0,76,0.00,,CLR,0.00,VWS V14.00,2013-06-22 12:30:00,
2013-06-22 08:35:00,74.7,67.0,30.05,WSW,245,0.0,3.0,77,0.00,,CLR,0.00,VWS V14.00,2013-06-22 12:35:00,
2013-06-22 08:40:00,75.1,67.4,30.06,WSW,250,0.0,4.0,77,0.00,,CLR,0.00,VWS V14.00,2013-06-22 12:40:00,
2013-06-22 08:45:00,75.5,67.4,30.06,SSW,207,0.0,5.0,76,0.00,,CLR,0.00,VWS V14.00,2013-06-22 12:45:00,
2013-06-22 08:50:00,75.9,67.8,30.06,WSW,243,0.0,6.0,76,0.00,,CLR,0.00,VWS V14.00,2013-06-22 12:50:00,
2013-06-22 08:55:00,76.4,68.3,30.06,SSW,211,0.0,6.0,76,0.00,,CLR,0.00,VWS V14.00,2013-06-22 12:55:00,
2013-06-22 09:00:00,76.9,68.0,30.06,West,260,1.0,4.0,74,0.00,,SCT120,0.00,VWS V14.00,2013-06-22 13:00:00,
2013-06-22 09:05:00,77.4,68.5,30.06,SW,219,0.0,4.0,74,0.00,,SCT120,0.00,VWS V14.00,2013-06-22 13:05:00,
2013-06-22 09:10:00,77.8,68.9,30.06,NW,304,2.0,6.0,74,0.00,,SCT120,0.00,VWS V14.00,2013-06-22 13:10:00,
2013-06-22 09:15:00,78.2,68.8,30.06,WSW,248,0.0,6.0,73,0.00,,SCT120,0.00,VWS V14.00,2013-06-22 13:15:00,
2013-06-22 09:20:00,78.4,69.0,30.05,WSW,237,0.0,1.0,73,0.00,,SCT120,0.00,VWS V14.00,2013-06-22 13:20:00,
2013-06-22 09:25:00,78.6,69.2,30.06,SSW,199,0.0,9.0,73,0.00,,SCT120,0.00,VWS V14.00,2013-06-22 13:25:00,
2013-06-22 09:30:00,78.7,68.9,30.06,SW,232,2.0,13.0,72,0.00,,SCT120,0.00,VWS V14.00,2013-06-22 13:30:00,
2013-06-22 09:35:00,78.8,69.4,30.06,WSW,257,0.0,13.0,73,0.00,,SCT120,0.00,VWS V14.00,2013-06-22 13:35:00,
2013-06-22 09:40:00,79.2,69.8,30.06,WSW,250,0.0,7.0,73,0.00,,SCT120,0.00,VWS V14.00,2013-06-22 13:40:00,
2013-06-22 09:45:00,79.7,70.3,30.06,SSW,210,0.0,9.0,73,0.00,,SCT120,0.00,VWS V14.00,2013-06-22 13:45:00,
2013-06-22 09:50:00,80.1,70.7,30.06,South,190,3.0,3.0,73,0.00,,SCT120,0.00,VWS V14.00,2013-06-22 13:50:00,
2013-06-22 09:55:00,80.5,70.7,30.06,SSW,205,0.0,5.0,72,0.00,,SCT120,0.00,VWS V14.00,2013-06-22 13:55:00,
2013-06-22 10:00:00,80.8,70.1,30.06,West,272,0.0,7.0,70,0.00,,CLR,0.00,VWS V14.00,2013-06-22 14:00:00,
2013-06-22 10:05:00,81.1,70.8,30.06,West,261,1.0,7.0,71,0.00,,CLR,0.00,VWS V14.00,2013-06-22 14:05:00,
2013-06-22 10:10:00,81.1,70.4,30.06,WSW,251,0.0,5.0,70,0.00,,CLR,0.00,VWS V14.00,2013-06-22 14:10:00,
2013-06-22 10:15:00,81.1,70.8,30.06,WSW,240,4.0,9.0,71,0.00,,CLR,0.00,VWS V14.00,2013-06-22 14:15:00,
2013-06-22 10:20:00,80.9,70.6,30.06,WSW,245,0.0,1.0,71,0.00,,CLR,0.00,VWS V14.00,2013-06-22 14:20:00,
2013-06-22 10:25:00,80.9,71.0,30.06,SW,232,0.0,9.0,72,0.00,,CLR,0.00,VWS V14.00,2013-06-22 14:25:00,
2013-06-22 10:30:00,81.2,71.7,30.05,WSW,254,0.0,2.0,73,0.00,,CLR,0.00,VWS V14.00,2013-06-22 14:30:00,
2013-06-22 10:35:00,81.5,71.2,30.06,West,265,0.0,5.0,71,0.00,,CLR,0.00,VWS V14.00,2013-06-22 14:35:00,
2013-06-22 10:40:00,81.9,72.0,30.05,West,277,0.0,5.0,72,0.00,,CLR,0.00,VWS V14.00,2013-06-22 14:40:00,
2013-06-22 10:45:00,82.3,71.1,30.06,SSW,206,4.0,6.0,69,0.00,,CLR,0.00,VWS V14.00,2013-06-22 14:45:00,
2013-06-22 10:50:00,82.5,71.7,30.05,SSW,199,0.0,5.0,70,0.00,,CLR,0.00,VWS V14.00,2013-06-22 14:50:00,
2013-06-22 10:55:00,82.9,72.1,30.05,WNW,289,0.0,5.0,70,0.00,,CLR,0.00,VWS V14.00,2013-06-22 14:55:00,
2013-06-22 11:00:00,83.3,71.2,30.05,SW,225,0.0,11.0,67,0.00,,FEW110,0.00,VWS V14.00,2013-06-22 15:00:00,
2013-06-22 11:05:00,83.1,70.6,30.05,SW,234,3.0,11.0,66,0.00,,FEW110,0.00,VWS V14.00,2013-06-22 15:05:00,
2013-06-22 11:10:00,82.7,70.6,30.05,WSW,246,1.0,4.0,67,0.00,,FEW110,0.00,VWS V14.00,2013-06-22 15:10:00,
2013-06-22 11:15:00,82.6,71.4,30.05,WSW,238,1.0,6.0,69,0.00,,FEW110,0.00,VWS V14.00,2013-06-22 15:15:00,
2013-06-22 11:20:00,82.7,70.6,30.05,WSW,248,1.0,7.0,67,0.00,,FEW110,0.00,VWS V14.00,2013-06-22 15:20:00,
2013-06-22 11:25:00,82.9,71.7,30.04,SW,215,4.0,7.0,69,0.00,,FEW110,0.00,VWS V14.00,2013-06-22 15:25:00,
2013-06-22 11:30:00,83.1,71.4,30.04,WSW,242,0.0,0.0,68,0.00,,FEW110,0.00,VWS V14.00,2013-06-22 15:30:00,
2013-06-22 11:35:00,83.6,71.9,30.04,SSW,211,0.0,4.0,68,0.00,,FEW110,0.00,VWS V14.00,2013-06-22 15:35:00,
2013-06-22 11:40:00,84.1,72.8,30.04,SW,230,0.0,1.0,69,0.00,,FEW110,0.00,VWS V14.00,2013-06-22 15:40:00,
2013-06-22 11:45:00,84.5,73.2,30.04,SSW,207,0.0,5.0,69,0.00,,FEW110,0.00,VWS V14.00,2013-06-22 15:45:00,
2013-06-22 11:50:00,85.0,72.8,30.04,SW,230,0.0,3.0,67,0.00,,FEW110,0.00,VWS V14.00,2013-06-22 15:50:00,
2013-06-22 11:55:00,85.4,73.6,30.04,West,260,3.0,7.0,68,0.00,,FEW110,0.00,VWS V14.00,2013-06-22 15:55:00,
2013-06-22 12:00:00,85.7,73.5,30.04,South,176,1.0,1.0,67,0.00,,CLR,0.00,VWS V14.00,2013-06-22 16:00:00,
2013-06-22 12:05:00,86.0,73.8,30.04,SW,215,0.0,8.0,67,0.00,,CLR,0.00,VWS V14.00,2013-06-22 16:05:00,
2013-06-22 12:10:00,86.2,74.0,30.04,SSW,205,0.0,4.0,67,0.00,,CLR,0.00,VWS V14.00,2013-06-22 16:10:00,
2013-06-22 12:15:00,86.4,73.7,30.05,SW,236,1.0,10.0,66,0.00,,CLR,0.00,VWS V14.00,2013-06-22 16:15:00,
2013-06-22 12:20:00,86.8,74.5,30.05,West,277,0.0,1.0,67,0.00,,CLR,0.00,VWS V14.00,2013-06-22 16:20:00,
2013-06-22 12:25:00,87.2,74.9,30.05,WNW,303,0.0,7.0,67,0.00,,CLR,0.00,VWS V14.00,2013-06-22 16:25:00,
2013-06-22 12:30:00,87.3,73.6,30.05,WSW,240,0.0,2.0,64,0.00,,CLR,0.00,VWS V14.00,2013-06-22 16:30:00,
2013-06-22 12:35:00,87.3,74.1,30.05,West,261,3.0,4.0,65,0.00,,CLR,0.00,VWS V14.00,2013-06-22 16:35:00,
2013-06-22 12:40:00,87.7,74.5,30.05,West,280,4.0,6.0,65,0.00,,CLR,0.00,VWS V14.00,2013-06-22 16:40:00,
2013-06-22 12:45:00,88.2,74.0,30.05,WSW,252,1.0,7.0,63,0.00,,CLR,0.00,VWS V14.00,2013-06-22 16:45:00,
2013-06-22 12:50:00,88.7,75.0,30.05,West,267,0.0,2.0,64,0.00,,CLR,0.00,VWS V14.00,2013-06-22 16:50:00,
2013-06-22 12:55:00,89.2,75.4,30.04,SSW,213,0.0,7.0,64,0.00,,CLR,0.00,VWS V14.00,2013-06-22 16:55:00,
2013-06-22 13:00:00,88.9,74.7,30.04,SSW,211,5.0,5.0,63,0.00,,CLR,0.00,VWS V14.00,2013-06-22 17:00:00,
2013-06-22 13:05:00,88.7,75.0,30.03,SW,236,1.0,10.0,64,0.00,,CLR,0.00,VWS V14.00,2013-06-22 17:05:00,
2013-06-22 13:10:00,88.7,75.0,30.04,WSW,246,0.0,5.0,64,0.00,,CLR,0.00,VWS V14.00,2013-06-22 17:10:00,
2013-06-22 13:15:00,88.7,73.5,30.04,WSW,238,0.0,9.0,61,0.00,,CLR,0.00,VWS V14.00,2013-06-22 17:15:00,
2013-06-22 13:20:00,88.5,74.3,30.03,WSW,250,1.0,5.0,63,0.00,,CLR,0.00,VWS V14.00,2013-06-22 17:20:00,
2013-06-22 13:25:00,88.2,73.6,30.03,SW,223,0.0,5.0,62,0.00,,CLR,0.00,VWS V14.00,2013-06-22 17:25:00,
2013-06-22 13:30:00,88.4,74.7,30.03,SW,219,0.0,4.0,64,0.00,,CLR,0.00,VWS V14.00,2013-06-22 17:30:00,
2013-06-22 13:35:00,89.0,74.8,30.03,WSW,254,1.0,9.0,63,0.00,,CLR,0.00,VWS V14.00,2013-06-22 17:35:00,
2013-06-22 13:40:00,89.2,74.0,30.03,West,264,0.0,5.0,61,0.00,,CLR,0.00,VWS V14.00,2013-06-22 17:40:00,
2013-06-22 13:45:00,89.5,75.2,30.02,SSW,198,0.0,10.0,63,0.00,,CLR,0.00,VWS V14.00,2013-06-22 17:45:00,
2013-06-22 13:50:00,89.8,76.0,30.02,SSE,164,3.0,4.0,64,0.00,,CLR,0.00,VWS V14.00,2013-06-22 17:50:00,
2013-06-22 13:55:00,90.1,75.8,30.02,SSW,194,0.0,7.0,63,0.00,,CLR,0.00,VWS V14.00,2013-06-22 17:55:00,
2013-06-22 14:00:00,90.6,75.3,30.02,WSW,248,5.0,12.0,61,0.00,,FEW039,0.00,VWS V14.00,2013-06-22 18:00:00,
2013-06-22 14:05:00,90.5,75.7,30.02,SSW,200,1.0,12.0,62,0.00,,FEW039,0.00,VWS V14.00,2013-06-22 18:05:00,
2013-06-22 14:10:00,90.3,75.0,30.01,SSW,202,2.0,9.0,61,0.00,,FEW039,0.00,VWS V14.00,2013-06-22 18:10:00,
2013-06-22 14:15:00,90.1,75.3,30.01,West,270,3.0,9.0,62,0.00,,FEW039,0.00,VWS V14.00,2013-06-22 18:15:00,
2013-06-22 14:20:00,90.0,74.8,30.01,SSW,194,0.0,9.0,61,0.00,,FEW039,0.00,VWS V14.00,2013-06-22 18:20:00,
2013-06-22 14:25:00,89.9,75.1,30.01,SSE,166,0.0,12.0,62,0.00,,FEW039,0.00,VWS V14.00,2013-06-22 18:25:00,
2013-06-22 14:30:00,90.1,75.8,30.01,SW,236,5.0,7.0,63,0.00,,FEW039,0.00,VWS V14.00,2013-06-22 18:30:00,
2013-06-22 14:35:00,90.3,74.5,30.01,WSW,240,0.0,9.0,60,0.00,,FEW039,0.00,VWS V14.00,2013-06-22 18:35:00,
2013-06-22 14:40:00,90.1,75.3,30.01,WNW,302,3.0,3.0,62,0.00,,FEW039,0.00,VWS V14.00,2013-06-22 18:40:00,
2013-06-22 14:45:00,90.1,75.3,30.01,South,182,2.0,8.0,62,0.00,,FEW039,0.00,VWS V14.00,2013-06-22 18:45:00,
2013-06-22 14:50:00,90.1,75.8,30.00,South,188,0.0,5.0,63,0.00,,FEW039,0.00,VWS V14.00,2013-06-22 18:50:00,
2013-06-22 14:55:00,90.1,74.8,29.99,SSW,204,0.0,11.0,61,0.00,,FEW039,0.00,VWS V14.00,2013-06-22 18:55:00,
2013-06-22 15:00:00,90.2,73.9,30.00,SSE,168,0.0,6.0,59,0.00,,FEW041,0.00,VWS V14.00,2013-06-22 19:00:00,
2013-06-22 15:05:00,89.7,74.0,29.99,South,186,3.0,7.0,60,0.00,,FEW041,0.00,VWS V14.00,2013-06-22 19:05:00,
2013-06-22 15:10:00,89.4,74.2,29.99,WSW,238,0.0,6.0,61,0.00,,FEW041,0.00,VWS V14.00,2013-06-22 19:10:00,
2013-06-22 15:15:00,89.1,73.9,30.00,South,183,0.0,7.0,61,0.00,,FEW041,0.00,VWS V14.00,2013-06-22 19:15:00,
2013-06-22 15:20:00,89.2,74.5,30.00,SSW,198,0.0,3.0,62,0.00,,FEW041,0.00,VWS V14.00,2013-06-22 19:20:00,
2013-06-22 15:25:00,89.3,74.1,29.99,SSW,207,0.0,10.0,61,0.00,,FEW041,0.00,VWS V14.00,2013-06-22 19:25:00,
2013-06-22 15:30:00,89.3,73.6,29.98,WSW,244,0.0,7.0,60,0.00,,FEW041,0.00,VWS V14.00,2013-06-22 19:30:00,
2013-06-22 15:35:00,89.5,75.7,29.98,SSW,205,0.0,7.0,64,0.00,,FEW041,0.00,VWS V14.00,2013-06-22 19:35:00,
2013-06-22 15:40:00,90.0,74.8,29.97,SSW,198,4.0,15.0,61,0.00,,FEW041,0.00,VWS V14.00,2013-06-22 19:40:00,
2013-06-22 15:45:00,90.4,76.1,29.97,South,188,1.0,15.0,63,0.00,,FEW041,0.00,VWS V14.00,2013-06-22 19:45:00,
2013-06-22 15:50:00,90.9,75.1,29.97,SSW,195,0.0,7.0,60,0.00,,FEW041,0.00,VWS V14.00,2013-06-22 19:50:00,
2013-06-22 15:55:00,91.0,74.2,29.96,SW,222,0.0,10.0,58,0.00,,FEW041,0.00,VWS V14.00,2013-06-22 19:55:00,
2013-06-22 16:00:00,91.1,75.8,29.96,SSW,206,0.0,5.0,61,0.00,,FEW045,0.00,VWS V14.00,2013-06-22 20:00:00,
2013-06-22 16:05:00,91.2,74.4,29.95,SW,218,3.0,11.0,58,0.00,,FEW045,0.00,VWS V14.00,2013-06-22 20:05:00,
2013-06-22 16:10:00,91.0,73.7,29.95,South,190,2.0,13.0,57,0.00,,FEW045,0.00,VWS V14.00,2013-06-22 20:10:00,
2013-06-22 16:15:00,90.6,74.3,29.95,SW,228,0.0,13.0,59,0.00,,FEW045,0.00,VWS V14.00,2013-06-22 20:15:00,
2013-06-22 16:20:00,90.9,74.1,29.95,SW,232,4.0,8.0,58,0.00,,FEW045,0.00,VWS V14.00,2013-06-22 20:20:00,
2013-06-22 16:25:00,90.8,73.5,29.94,South,185,11.0,11.0,57,0.00,,FEW045,0.00,VWS V14.00,2013-06-22 20:25:00,
2013-06-22 16:30:00,90.8,73.5,29.94,SSW,213,1.0,12.0,57,0.00,,FEW045,0.00,VWS V14.00,2013-06-22 20:30:00,
2013-06-22 16:35:00,91.0,74.7,29.93,SE,130,0.0,15.0,59,0.00,,FEW045,0.00,VWS V14.00,2013-06-22 20:35:00,
2013-06-22 16:40:00,91.4,74.0,29.93,WSW,240,0.0,10.0,57,0.00,,FEW045,0.00,VWS V14.00,2013-06-22 20:40:00,
2013-06-22 16:45:00,91.3,72.9,29.94,SW,218,4.0,12.0,55,0.00,,FEW045,0.00,VWS V14.00,2013-06-22 20:45:00,
2013-06-22 16:50:00,91.1,73.8,29.93,SSW,199,1.0,1.0,57,0.00,,FEW045,0.00,VWS V14.00,2013-06-22 20:50:00,
2013-06-22 16:55:00,90.9,73.6,29.93,West,263,0.0,9.0,57,0.00,,FEW045,0.00,VWS V14.00,2013-06-22 20:55:00,
2013-06-22 17:00:00,90.9,74.1,29.94,SSW,203,2.0,10.0,58,0.00,,CLR,0.00,VWS V14.00,2013-06-22 21:00:00,
2013-06-22 17:04:00,90.8,74.0,29.94,SW,227,1.0,12.0,58,0.00,,CLR,0.00,VWS V14.00,2013-06-22 21:04:00,
2013-06-22 17:09:00,90.4,73.6,29.95,South,175,0.0,8.0,58,0.00,,CLR,0.00,VWS V14.00,2013-06-22 21:09:00,
2013-06-22 17:14:00,89.8,71.5,29.96,WSW,242,6.0,8.0,55,0.00,,CLR,0.00,VWS V14.00,2013-06-22 21:14:00,
2013-06-22 17:19:00,88.5,68.6,29.99,NNE,15,0.0,11.0,52,0.00,,CLR,0.00,VWS V14.00,2013-06-22 21:19:00,
2013-06-22 17:24:00,83.3,66.5,29.99,NNE,28,3.0,11.0,57,0.00,,CLR,0.00,VWS V14.00,2013-06-22 21:24:00,
2013-06-22 17:29:00,78.9,66.2,29.99,NNE,25,2.0,9.0,65,0.00,,CLR,0.00,VWS V14.00,2013-06-22 21:29:00,
2013-06-22 17:34:00,76.6,65.3,29.99,NE,54,0.0,16.0,68,0.00,,CLR,0.00,VWS V14.00,2013-06-22 21:34:00,
2013-06-22 17:39:00,74.9,63.6,29.99,North,355,0.0,0.0,68,0.00,,CLR,0.00,VWS V14.00,2013-06-22 21:39:00,
2013-06-22 17:44:00,74.1,64.1,29.99,NE,53,0.0,3.0,71,0.00,,CLR,0.00,VWS V14.00,2013-06-22 21:44:00,
2013-06-22 17:49:00,73.9,65.1,29.98,ENE,69,0.0,0.0,74,0.00,,CLR,0.00,VWS V14.00,2013-06-22 21:49:00,
2013-06-22 17:54:00,73.9,65.5,29.98,ENE,69,0.0,2.0,75,0.00,,CLR,0.00,VWS V14.00,2013-06-22 21:54:00,
2013-06-22 17:59:00,74.1,66.4,29.98,East,96,0.0,4.0,77,0.00,,FEW050,0.00,VWS V14.00,2013-06-22 21:59:00,
2013-06-22 18:04:00,74.1,66.4,29.99,East,101,0.0,4.0,77,0.00,,FEW050,0.00,VWS V14.00,2013-06-22 22:04:00,
2013-06-22 18:09:00,74.2,66.9,29.99,East,101,0.0,0.0,78,0.00,,FEW050,0.00,VWS V14.00,2013-06-22 22:09:00,
2013-06-22 18:14:00,74.3,67.4,29.98,East,101,0.0,0.0,79,0.00,,FEW050,0.00,VWS V14.00,2013-06-22 22:14:00,
2013-06-22 18:19:00,74.4,67.5,29.98,East,101,1.0,1.0,79,0.00,,FEW050,0.00,VWS V14.00,2013-06-22 22:19:00,
2013-06-22 18:24:00,74.6,68.0,30.00,SSW,199,1.0,6.0,80,0.00,,FEW050,0.00,VWS V14.00,2013-06-22 22:24:00,
2013-06-22 18:29:00,74.8,68.9,30.01,WNW,302,2.0,13.0,82,0.08,,FEW050,0.08,VWS V14.00,2013-06-22 22:29:00,
2013-06-22 18:34:00,74.6,69.4,30.02,SSW,210,0.0,13.0,84,0.23,,FEW050,0.23,VWS V14.00,2013-06-22 22:34:00,
2013-06-22 18:39:00,73.6,68.8,30.00,NW,304,0.0,2.0,85,0.58,,FEW050,0.58,VWS V14.00,2013-06-22 22:39:00,
2013-06-22 18:44:00,72.9,68.5,30.01,NW,304,0.0,2.0,86,0.68,,FEW050,0.68,VWS V14.00,2013-06-22 22:44:00,
2013-06-22 18:49:00,72.3,68.2,30.01,SW,225,0.0,1.0,87,0.70,,FEW050,0.70,VWS V14.00,2013-06-22 22:49:00,
2013-06-22 18:54:00,71.8,68.1,30.00,SW,225,0.0,1.0,88,0.72,,FEW050,0.72,VWS V14.00,2013-06-22 22:54:00,
2013-06-22 18:59:00,71.5,68.1,29.98,SW,225,0.0,0.0,89,0.76,,OVC045,0.76,VWS V14.00,2013-06-22 22:59:00,
2013-06-22 19:04:00,71.3,67.9,29.97,SW,223,0.0,2.0,89,0.76,,OVC045,0.76,VWS V14.00,2013-06-22 23:04:00,
2013-06-22 19:09:00,71.2,68.1,29.97,SW,223,0.0,3.0,90,0.76,,OVC045,0.76,VWS V14.00,2013-06-22 23:09:00,
2013-06-22 19:14:00,70.9,67.8,29.97,SW,223,0.0,3.0,90,0.76,,OVC045,0.76,VWS V14.00,2013-06-22 23:14:00,
2013-06-22 19:19:00,70.6,67.5,29.97,SW,223,0.0,0.0,90,0.76,,OVC045,0.76,VWS V14.00,2013-06-22 23:19:00,
2013-06-22 19:24:00,70.2,67.1,29.97,SW,223,0.0,0.0,90,0.76,,OVC045,0.76,VWS V14.00,2013-06-22 23:24:00,
2013-06-22 19:29:00,70.0,66.9,29.97,SW,222,0.0,0.0,90,0.73,,BKN110,0.76,VWS V14.00,2013-06-22 23:29:00,
2013-06-22 19:34:00,69.9,67.2,29.97,SW,223,0.0,0.0,91,0.73,,BKN110,0.76,VWS V14.00,2013-06-22 23:34:00,
2013-06-22 19:39:00,69.7,67.0,29.95,SW,223,0.0,0.0,91,0.27,,BKN110,0.77,VWS V14.00,2013-06-22 23:39:00,
2013-06-22 19:44:00,69.6,66.9,29.95,SW,223,0.0,0.0,91,0.27,,BKN110,0.77,VWS V14.00,2013-06-22 23:44:00,
2013-06-22 19:49:00,69.5,66.8,29.96,SW,223,0.0,0.0,91,0.08,,BKN110,0.77,VWS V14.00,2013-06-22 23:49:00,
2013-06-22 19:54:00,69.5,66.8,29.97,SW,223,0.0,1.0,91,0.08,,BKN110,0.77,VWS V14.00,2013-06-22 23:54:00,
2013-06-22 19:59:00,69.5,67.1,29.98,SW,222,1.0,2.0,92,0.02,,,0.77,VWS V14.00,2013-06-22 23:59:00,
2013-06-22 20:04:00,69.4,67.0,29.98,SW,233,0.0,3.0,92,0.02,,,0.77,VWS V14.00,2013-06-23 00:04:00,
2013-06-22 20:09:00,69.3,66.9,29.98,SW,225,0.0,0.0,92,0.01,,,0.77,VWS V14.00,2013-06-23 00:09:00,
2013-06-22 20:14:00,69.2,66.8,29.99,SW,225,0.0,1.0,92,0.01,,,0.77,VWS V14.00,2013-06-23 00:14:00,
2013-06-22 20:19:00,69.2,66.8,29.99,SW,225,0.0,0.0,92,0.02,,,0.78,VWS V14.00,2013-06-23 00:19:00,
2013-06-22 20:24:00,69.1,66.7,30.00,SW,225,0.0,0.0,92,0.02,,,0.78,VWS V14.00,2013-06-23 00:24:00,
2013-06-22 20:29:00,69.0,66.6,29.99,SW,225,3.0,3.0,92,0.03,,,0.79,VWS V14.00,2013-06-23 00:29:00,
2013-06-22 20:34:00,69.0,66.6,29.99,SW,225,0.0,4.0,92,0.03,,,0.79,VWS V14.00,2013-06-23 00:34:00,
2013-06-22 20:39:00,69.2,67.1,29.99,West,269,2.0,4.0,93,0.03,,,0.80,VWS V14.00,2013-06-23 00:39:00,
2013-06-22 20:44:00,69.4,67.3,30.00,West,271,0.0,4.0,93,0.04,,,0.81,VWS V14.00,2013-06-23 00:44:00,
2013-06-22 20:49:00,69.6,67.5,30.00,West,271,0.0,0.0,93,0.05,,,0.82,VWS V14.00,2013-06-23 00:49:00,
2013-06-22 20:54:00,69.9,67.8,30.00,West,271,0.0,0.0,93,0.05,,,0.82,VWS V14.00,2013-06-23 00:54:00,
2013-06-22 20:59:00,70.3,68.2,30.00,South,190,0.0,7.0,93,0.06,,-RA,0.83,VWS V14.00,2013-06-23 00:59:00,
2013-06-22 21:04:00,70.6,68.5,30.01,South,172,0.0,7.0,93,0.06,,-RA,0.83,VWS V14.00,2013-06-23 01:04:00,
2013-06-22 21:09:00,70.4,68.3,30.01,South,177,0.0,2.0,93,0.07,,-RA,0.84,VWS V14.00,2013-06-23 01:09:00,
2013-06-22 21:14:00,70.3,68.2,30.00,South,183,1.0,5.0,93,0.07,,-RA,0.84,VWS V14.00,2013-06-23 01:14:00,
2013-06-22 21:19:00,70.4,68.3,30.00,South,175,0.0,0.0,93,0.06,,-RA,0.84,VWS V14.00,2013-06-23 01:19:00,
2013-06-22 21:24:00,70.4,68.3,30.00,South,190,0.0,6.0,93,0.06,,-RA,0.84,VWS V14.00,2013-06-23 01:24:00,
2013-06-22 21:29:00,70.3,68.2,30.01,SSW,199,0.0,3.0,93,0.05,,-RA,0.84,VWS V14.00,2013-06-23 01:29:00,
2013-06-22 21:34:00,70.2,68.1,30.01,SW,216,0.0,5.0,93,0.05,,-RA,0.84,VWS V14.00,2013-06-23 01:34:00,
2013-06-22 21:39:00,70.0,67.9,30.01,South,190,0.0,5.0,93,0.04,,-RA,0.84,VWS V14.00,2013-06-23 01:39:00,
2013-06-22 21:44:00,69.8,67.7,30.01,South,175,4.0,5.0,93,0.04,,-RA,0.84,VWS V14.00,2013-06-23 01:44:00,
2013-06-22 21:49:00,69.6,67.5,30.01,SSW,197,0.0,3.0,93,0.02,,-RA,0.84,VWS V14.00,2013-06-23 01:49:00,
2013-06-22 21:54:00,69.4,67.3,30.01,SSW,200,1.0,3.0,93,0.02,,-RA,0.84,VWS V14.00,2013-06-23 01:54:00,
2013-06-22 21:59:00,69.4,67.3,30.01,SSW,198,1.0,1.0,93,0.01,,-RA,0.84,VWS V14.00,2013-06-23 01:59:00,
2013-06-22 22:04:00,69.4,67.3,30.01,South,191,0.0,4.0,93,0.01,,-RA,0.84,VWS V14.00,2013-06-23 02:04:00,
2013-06-22 22:09:00,69.4,67.3,30.01,South,191,0.0,0.0,93,0.00,,-RA,0.84,VWS V14.00,2013-06-23 02:09:00,
2013-06-22 22:14:00,69.4,67.3,30.02,South,191,0.0,0.0,93,0.00,,-RA,0.84,VWS V14.00,2013-06-23 02:14:00,
2013-06-22 22:19:00,69.5,67.4,30.02,South,191,0.0,0.0,93,0.00,,-RA,0.84,VWS V14.00,2013-06-23 02:19:00,
2013-06-22 22:24:00,69.7,67.9,30.02,SSW,192,0.0,3.0,94,0.00,,-RA,0.84,VWS V14.00,2013-06-23 02:24:00,
2013-06-22 22:29:00,69.8,68.0,30.02,SSW,200,4.0,4.0,94,0.00,,-RA,0.84,VWS V14.00,2013-06-23 02:29:00,
2013-06-22 22:34:00,69.9,68.1,30.02,SW,214,1.0,4.0,94,0.00,,-RA,0.84,VWS V14.00,2013-06-23 02:34:00,
2013-06-22 22:39:00,70.0,68.2,30.02,South,171,3.0,4.0,94,0.00,,-RA,0.84,VWS V14.00,2013-06-23 02:39:00,
2013-06-22 22:44:00,70.1,68.3,30.02,SSW,209,5.0,5.0,94,0.00,,-RA,0.84,VWS V14.00,2013-06-23 02:44:00,
2013-06-22 22:49:00,70.2,68.4,30.02,SSW,195,0.0,5.0,94,0.00,,-RA,0.84,VWS V14.00,2013-06-23 02:49:00,
2013-06-22 22:54:00,70.2,68.4,30.02,SW,218,0.0,5.0,94,0.00,,-RA,0.84,VWS V14.00,2013-06-23 02:54:00,
2013-06-22 22:59:00,70.3,68.5,30.02,SW,218,0.0,0.0,94,0.00,,-RA,0.84,VWS V14.00,2013-06-23 02:59:00,
2013-06-22 23:04:00,70.3,68.5,30.02,SW,218,0.0,0.0,94,0.00,,-RA,0.84,VWS V14.00,2013-06-23 03:04:00,
2013-06-22 23:09:00,70.3,68.5,30.02,SW,218,0.0,0.0,94,0.00,,-RA,0.84,VWS V14.00,2013-06-23 03:09:00,
2013-06-22 23:14:00,70.4,68.6,30.02,SW,218,0.0,1.0,94,0.00,,-RA,0.84,VWS V14.00,2013-06-23 03:14:00,
2013-06-22 23:19:00,70.4,68.6,30.02,SW,218,0.0,0.0,94,0.00,,-RA,0.84,VWS V14.00,2013-06-23 03:19:00,
2013-06-22 23:24:00,70.5,68.7,30.02,SW,218,0.0,0.0,94,0.00,,-RA,0.84,VWS V14.00,2013-06-23 03:24:00,
2013-06-22 23:29:00,70.5,68.7,30.01,SW,218,0.0,1.0,94,0.00,,-RA,0.84,VWS V14.00,2013-06-23 03:29:00,
2013-06-22 23:34:00,70.5,68.7,30.01,SW,218,0.0,2.0,94,0.00,,-RA,0.84,VWS V14.00,2013-06-23 03:34:00,
2013-06-22 23:39:00,70.6,68.8,30.01,SW,219,0.0,0.0,94,0.00,,-RA,0.84,VWS V14.00,2013-06-23 03:39:00,
2013-06-22 23:44:00,70.6,68.8,30.01,SW,219,0.0,1.0,94,0.00,,-RA,0.84,VWS V14.00,2013-06-23 03:44:00,
2013-06-22 23:49:00,70.6,68.8,30.01,SW,222,0.0,0.0,94,0.00,,-RA,0.84,VWS V14.00,2013-06-23 03:49:00,
2013-06-22 23:54:00,70.6,68.8,30.00,SW,222,0.0,3.0,94,0.00,,-RA,0.84,VWS V14.00,2013-06-23 03:54:00,
2013-06-22 23:59:00,70.6,68.8,30.00,West,275,0.0,5.0,94,0.00,,CLR,0.00,VWS V14.00,2013-06-23 03:59:00,